Moline, IL

4:51 PM CST on January 22, 2018 (GMT -0600)
Quad-City International

Weather History for KMLI - July, 2013

Change the Weather History Date:

Tuesday, July 16, 2013

  Actual Average Record
Temperature  
Mean Temperature 82 °F 76 °F  
Max Temperature 91 °F 86 °F 101 °F (1913)
Min Temperature 72 °F 65 °F 51 °F (2014)
Degree Days  
Heating Degree Days 0 0  
Month to date heating degree days 0 0  
Since 1 June heating degree days 27 19  
Since 1 July heating degree days 0 0  
Cooling Degree Days 17 11  
Month to date cooling degree days 143 172  
Year to date cooling degree days 436 462  
Since 1 June cooling degree days 346 386  
Growing Degree Days 32 (Base 50)    
Moisture  
Dew Point 73 °F    
Average Humidity 75    
Maximum Humidity 93    
Minimum Humidity 56    
Precipitation  
Precipitation 0.00 in 0.15 in 1.00 in (1903)
Month to date precipitation 0.73 2.38  
Year to date precipitation 30.02 20.73  
Snow  
Snow 0.00 in 0.00 in - ()
Month to date snowfall 0.0 0.0  
Since 1 June snowfall 0.0 0.0  
Since 1 July snowfall 0.0 0.0  
Snow Depth 0.00 in    
Sea Level Pressure  
Sea Level Pressure 30.25 in    
Wind  
Wind Speed 4 mph (South)    
Max Wind Speed 9 mph    
Max Gust Speed 13 mph    
Visibility 10 miles    
Events      
T = Trace of Precipitation, MM = Missing Value Source: NWS Daily Summary

Daily Weather History Graph

Daily Weather History Graph

Search for Another Location

Airport or City:

Trip Planner

Search our weather history database for the weather conditions in past years. The results will help you decide how hot, cold, wet, or windy it might be!

Date:

Astronomy

Jul. 16, 2013 Rise Set
Actual Time 5:42 AM CDT 8:33 PM CDT
Civil Twilight 5:09 AM CDT 9:06 PM CDT
Nautical Twilight 4:28 AM CDT 9:47 PM CDT
Astronomical Twilight 3:40 AM CDT 10:34 PM CDT
Moon 2:13 PM CDT (7/16) 12:14 AM CDT (7/16)
Length of Visible Light 15h 56m
Length of Day
14h 50m
First Quarter, 56% of the Moon is Illuminated
Jul 16
First Quarter
Jul 22
Full
Jul 29
Last Quarter
Aug 6
New
Aug 14
First Quarter

Hourly Weather History & Observations

Time (CDT) Temp. Heat Index Dew Point Humidity Pressure Visibility Wind Dir Wind Speed Gust Speed Precip Events Conditions
12:52 AM 77.0 °F - 72.0 °F 84% 30.23 in 10.0 mi South 4.6 mph - N/A   Clear
1:52 AM 75.9 °F - 72.0 °F 87% 30.22 in 10.0 mi SE 4.6 mph - N/A   Clear
2:52 AM 75.0 °F - 72.0 °F 90% 30.22 in 9.0 mi Calm Calm - N/A   Clear
3:52 AM 75.9 °F - 72.0 °F 87% 30.22 in 10.0 mi Calm Calm - N/A   Clear
4:52 AM 73.0 °F - 70.0 °F 90% 30.23 in 8.0 mi ESE 4.6 mph - N/A   Clear
5:52 AM 72.0 °F - 70.0 °F 93% 30.25 in 5.0 mi East 3.5 mph - N/A   Clear
6:52 AM 75.0 °F - 72.0 °F 90% 30.27 in 7.0 mi Calm Calm - N/A   Clear
7:52 AM 79.0 °F - 73.0 °F 82% 30.28 in 10.0 mi SSW 5.8 mph - N/A   Clear
8:52 AM 82.0 °F 87.9 °F 73.9 °F 76% 30.28 in 10.0 mi South 4.6 mph - N/A   Clear
9:52 AM 84.0 °F 91.2 °F 73.9 °F 72% 30.27 in 10.0 mi SW 4.6 mph - N/A   Scattered Clouds
10:52 AM 84.9 °F 91.4 °F 73.0 °F 67% 30.28 in 10.0 mi SW 4.6 mph - N/A   Scattered Clouds
11:52 AM 88.0 °F 95.6 °F 73.0 °F 61% 30.27 in 10.0 mi Variable 4.6 mph - N/A   Partly Cloudy
12:52 PM 87.1 °F 94.5 °F 73.0 °F 63% 30.27 in 10.0 mi SSW 6.9 mph - N/A   Scattered Clouds
1:52 PM 89.1 °F 96.0 °F 72.0 °F 57% 30.26 in 10.0 mi Calm Calm - N/A   Clear
2:52 PM 91.0 °F 100.4 °F 73.9 °F 57% 30.25 in 10.0 mi South 5.8 mph - N/A   Scattered Clouds
3:52 PM 90.0 °F 97.9 °F 73.0 °F 57% 30.24 in 10.0 mi SSW 5.8 mph - N/A   Partly Cloudy
4:52 PM 89.1 °F 98.0 °F 73.9 °F 61% 30.23 in 10.0 mi SSE 6.9 mph - N/A   Scattered Clouds
5:52 PM 89.1 °F 96.0 °F 72.0 °F 57% 30.23 in 10.0 mi SSW 4.6 mph - N/A   Clear
6:52 PM 88.0 °F 95.6 °F 73.0 °F 61% 30.22 in 10.0 mi South 6.9 mph - N/A   Clear
7:52 PM 86.0 °F 95.1 °F 75.0 °F 70% 30.23 in 10.0 mi SSE 5.8 mph - N/A   Scattered Clouds
8:52 PM 81.0 °F 86.2 °F 73.9 °F 79% 30.24 in 10.0 mi SSE 5.8 mph - N/A   Clear
9:52 PM 81.0 °F 85.8 °F 73.0 °F 77% 30.26 in 10.0 mi South 4.6 mph - N/A   Clear
10:52 PM 79.0 °F - 72.0 °F 79% 30.26 in 10.0 mi South 4.6 mph - N/A   Clear
11:52 PM 79.0 °F - 71.1 °F 77% 30.26 in 10.0 mi South 4.6 mph - N/A   Clear